UAL2213 KSAN-KDEN

Flight info

Callsign UAL2213
Flight time N/A
Altitude 35000
Route ZZOOO4 MTBAL EED PATOK BUMMP SSKII3
Aircraft B77W/H-SDE1E2E3FGHIJ2J3J4J5M1RWXY/LB1D1

Departure

Time 2026-05-07 05:23
Airport San Diego International Airport (KSAN)

Arrival

Time N/A
Airport Denver International Airport (KDEN)
Time Latitude Longitude Altitude Speed Heading
2026-05-07 04:55 32.73261 -117.20321 27 ft 0 kts 221°
2026-05-07 05:09 32.73270 -117.20312 26 ft 3 kts 222°
2026-05-07 05:10 32.73285 -117.20295 25 ft 3 kts 223°
2026-05-07 05:10 32.73300 -117.20279 25 ft 3 kts 226°
2026-05-07 05:10 32.73313 -117.20262 25 ft 3 kts 239°
2026-05-07 05:10 32.73320 -117.20242 26 ft 3 kts 259°
2026-05-07 05:11 32.73322 -117.20226 26 ft 2 kts 261°
2026-05-07 05:11 32.73320 -117.20246 26 ft 2 kts 269°
2026-05-07 05:11 32.73325 -117.20258 25 ft 2 kts 302°
2026-05-07 05:11 32.73331 -117.20264 25 ft 1 kts 324°
2026-05-07 05:12 32.73337 -117.20268 25 ft 1 kts 335°
2026-05-07 05:12 32.73339 -117.20269 25 ft 0 kts 337°
2026-05-07 05:14 32.73349 -117.20273 25 ft 3 kts 337°
2026-05-07 05:14 32.73375 -117.20279 27 ft 4 kts 356°
2026-05-07 05:14 32.73404 -117.20275 27 ft 4 kts 13°
2026-05-07 05:14 32.73432 -117.20266 27 ft 4 kts 15°
2026-05-07 05:15 32.73459 -117.20257 27 ft 4 kts 16°
2026-05-07 05:15 32.73488 -117.20247 27 ft 5 kts 16°
2026-05-07 05:15 32.73522 -117.20233 27 ft 6 kts 27°
2026-05-07 05:15 32.73543 -117.20195 27 ft 6 kts 78°
2026-05-07 05:16 32.73538 -117.20146 27 ft 6 kts 106°
2026-05-07 05:16 32.73523 -117.20081 27 ft 11 kts 105°
2026-05-07 05:16 32.73500 -117.19986 27 ft 12 kts 106°
2026-05-07 05:16 32.73476 -117.19891 28 ft 12 kts 106°
2026-05-07 05:17 32.73453 -117.19796 28 ft 12 kts 106°
2026-05-07 05:17 32.73430 -117.19701 27 ft 12 kts 106°
2026-05-07 05:17 32.73407 -117.19605 27 ft 12 kts 105°
2026-05-07 05:17 32.73384 -117.19510 28 ft 12 kts 105°
2026-05-07 05:18 32.73361 -117.19414 27 ft 12 kts 106°
2026-05-07 05:18 32.73336 -117.19312 27 ft 13 kts 106°
2026-05-07 05:18 32.73309 -117.19203 27 ft 15 kts 105°
2026-05-07 05:18 32.73278 -117.19072 27 ft 19 kts 106°
2026-05-07 05:19 32.73238 -117.18908 27 ft 23 kts 106°
2026-05-07 05:19 32.73192 -117.18714 27 ft 26 kts 106°
2026-05-07 05:19 32.73142 -117.18510 27 ft 26 kts 106°
2026-05-07 05:19 32.73092 -117.18306 27 ft 26 kts 106°
2026-05-07 05:20 32.73043 -117.18101 27 ft 26 kts 106°
2026-05-07 05:20 32.73003 -117.17936 27 ft 16 kts 106°
2026-05-07 05:20 32.72973 -117.17819 27 ft 13 kts 107°
2026-05-07 05:20 32.72957 -117.17762 27 ft 0 kts 109°
2026-05-07 05:21 32.72954 -117.17753 27 ft 1 kts 109°
2026-05-07 05:21 32.72949 -117.17710 27 ft 10 kts 90°
2026-05-07 05:22 32.72972 -117.17624 27 ft 12 kts 49°
2026-05-07 05:22 32.73038 -117.17650 27 ft 11 kts 288°
2026-05-07 05:22 32.73061 -117.17749 27 ft 18 kts 285°
2026-05-07 05:22 32.73148 -117.18108 31 ft 91 kts 286°
2026-05-07 05:23 32.73431 -117.19239 67 ft 188 kts 288°
2026-05-07 05:23 32.73824 -117.20789 1321 ft 190 kts 287°
2026-05-07 05:23 32.74213 -117.22406 2171 ft 219 kts 287°
2026-05-07 05:23 32.74645 -117.24221 2736 ft 232 kts 287°
2026-05-07 05:24 32.75088 -117.26078 3568 ft 236 kts 287°
2026-05-07 05:24 32.75541 -117.27970 4364 ft 241 kts 287°
2026-05-07 05:24 32.76007 -117.29910 5156 ft 246 kts 288°
2026-05-07 05:24 32.76466 -117.31887 5808 ft 250 kts 282°
2026-05-07 05:25 32.76387 -117.33975 6020 ft 261 kts 252°
2026-05-07 05:25 32.75396 -117.35786 5988 ft 266 kts 221°
2026-05-07 05:25 32.73770 -117.36811 5983 ft 267 kts 192°
2026-05-07 05:25 32.71948 -117.36804 5974 ft 263 kts 162°
2026-05-07 05:26 32.70388 -117.35749 6166 ft 257 kts 132°
2026-05-07 05:26 32.69252 -117.34118 6878 ft 259 kts 124°
2026-05-07 05:26 32.68159 -117.32408 7685 ft 260 kts 124°
2026-05-07 05:26 32.67084 -117.30720 8539 ft 260 kts 123°
2026-05-07 05:27 32.65972 -117.28983 9392 ft 261 kts 123°
2026-05-07 05:27 32.64881 -117.27284 10194 ft 263 kts 122°
2026-05-07 05:27 32.63757 -117.25534 10951 ft 263 kts 120°
2026-05-07 05:27 32.63079 -117.23590 11409 ft 263 kts 91°
2026-05-07 05:28 32.63415 -117.21414 11590 ft 281 kts 61°
2026-05-07 05:28 32.64620 -117.19478 11802 ft 305 kts 47°
2026-05-07 05:28 32.66205 -117.17648 12012 ft 331 kts 43°
2026-05-07 05:28 32.68009 -117.15735 12339 ft 352 kts 42°
2026-05-07 05:29 32.69863 -117.13825 13047 ft 361 kts 41°
2026-05-07 05:29 32.71781 -117.11856 13862 ft 367 kts 41°
2026-05-07 05:29 32.73743 -117.09821 14678 ft 371 kts 42°
2026-05-07 05:29 32.75657 -117.07815 15503 ft 375 kts 42°
2026-05-07 05:30 32.77636 -117.05723 16342 ft 378 kts 42°
2026-05-07 05:30 32.79611 -117.03621 17130 ft 383 kts 41°
2026-05-07 05:30 32.81579 -117.01518 17894 ft 388 kts 41°
2026-05-07 05:30 32.83594 -116.99359 18629 ft 392 kts 41°
2026-05-07 05:31 32.85629 -116.97175 19323 ft 396 kts 41°
2026-05-07 05:31 32.87677 -116.94973 20025 ft 399 kts 41°
2026-05-07 05:31 32.89746 -116.92748 20700 ft 403 kts 41°
2026-05-07 05:31 32.91835 -116.90499 21344 ft 407 kts 41°
2026-05-07 05:32 32.93944 -116.88228 22014 ft 411 kts 41°
2026-05-07 05:32 32.96074 -116.85934 22662 ft 414 kts 41°
2026-05-07 05:32 32.98218 -116.83621 23296 ft 418 kts 41°
2026-05-07 05:32 33.00391 -116.81276 23872 ft 422 kts 41°
2026-05-07 05:33 33.02571 -116.78921 24398 ft 425 kts 41°
2026-05-07 05:33 33.04769 -116.76547 24957 ft 427 kts 41°
2026-05-07 05:33 33.06976 -116.74160 25511 ft 429 kts 41°
2026-05-07 05:33 33.09190 -116.71764 26051 ft 432 kts 41°
2026-05-07 05:34 33.11420 -116.69350 26559 ft 434 kts 41°
2026-05-07 05:34 33.13665 -116.66916 27027 ft 437 kts 42°
2026-05-07 05:34 33.15889 -116.64504 27521 ft 439 kts 42°
2026-05-07 05:34 33.18188 -116.62009 27976 ft 442 kts 42°
2026-05-07 05:35 33.20447 -116.59556 28407 ft 445 kts 42°
2026-05-07 05:35 33.22740 -116.57064 28837 ft 448 kts 42°
2026-05-07 05:35 33.25080 -116.54519 29241 ft 450 kts 42°
2026-05-07 05:35 33.26616 -116.52847 29515 ft 451 kts 42°
2026-05-07 05:36 33.28937 -116.50319 29890 ft 453 kts 42°
2026-05-07 05:36 33.32027 -116.46950 30370 ft 454 kts 42°
2026-05-07 05:36 33.34353 -116.44412 30821 ft 451 kts 42°
2026-05-07 05:36 33.36666 -116.41886 31276 ft 450 kts 42°
2026-05-07 05:37 33.38215 -116.40166 31536 ft 449 kts 44°
2026-05-07 05:37 33.40359 -116.37457 31909 ft 449 kts 48°
2026-05-07 05:37 33.42297 -116.34514 32243 ft 449 kts 53°
2026-05-07 05:37 33.44073 -116.31507 32594 ft 449 kts 53°
2026-05-07 05:38 33.45892 -116.28420 32938 ft 447 kts 53°
2026-05-07 05:38 33.47668 -116.25417 33297 ft 447 kts 53°
2026-05-07 05:38 33.49472 -116.22381 33674 ft 446 kts 53°
2026-05-07 05:38 33.51292 -116.19326 34048 ft 445 kts 53°
2026-05-07 05:39 33.53066 -116.16352 34348 ft 444 kts 52°
2026-05-07 05:39 33.54864 -116.13339 34615 ft 444 kts 53°
2026-05-07 05:39 33.56658 -116.10327 34866 ft 444 kts 53°
2026-05-07 05:40 33.60298 -116.04281 34965 ft 448 kts 50°
2026-05-07 05:40 33.64385 -115.98713 34977 ft 442 kts 46°
2026-05-07 05:41 33.68538 -115.93285 34977 ft 441 kts 46°
2026-05-07 05:41 33.72662 -115.87862 35002 ft 439 kts 46°
2026-05-07 05:42 33.76782 -115.82409 35004 ft 440 kts 47°
2026-05-07 05:42 33.80900 -115.76942 34997 ft 442 kts 47°
2026-05-07 05:43 33.85025 -115.71454 35004 ft 443 kts 47°
2026-05-07 05:43 33.89134 -115.65980 35011 ft 444 kts 47°
2026-05-07 05:44 33.93274 -115.60458 35003 ft 444 kts 47°
2026-05-07 05:44 33.97415 -115.54925 34984 ft 444 kts 47°
2026-05-07 05:45 34.01549 -115.49393 34987 ft 444 kts 47°
2026-05-07 05:45 34.05682 -115.43852 34992 ft 443 kts 47°
2026-05-07 05:46 34.09806 -115.38316 34973 ft 443 kts 47°
2026-05-07 05:46 34.13901 -115.32810 34981 ft 443 kts 47°
2026-05-07 05:47 34.18024 -115.27258 34958 ft 444 kts 47°
2026-05-07 05:47 34.22141 -115.21705 34970 ft 444 kts 47°
2026-05-07 05:48 34.26258 -115.16144 34951 ft 444 kts 47°
2026-05-07 05:48 34.30378 -115.10568 34960 ft 445 kts 47°
2026-05-07 05:49 34.34502 -115.04979 34952 ft 446 kts 47°
2026-05-07 05:49 34.38632 -114.99373 34961 ft 446 kts 47°
2026-05-07 05:50 34.42764 -114.93756 34951 ft 447 kts 47°
2026-05-07 05:50 34.46892 -114.88134 34939 ft 447 kts 47°
2026-05-07 05:51 34.51026 -114.82494 34936 ft 447 kts 47°
2026-05-07 05:51 34.55159 -114.76848 34934 ft 447 kts 47°
2026-05-07 05:52 34.59286 -114.71200 34943 ft 447 kts 47°
2026-05-07 05:52 34.63411 -114.65546 34964 ft 447 kts 47°
2026-05-07 05:53 34.67538 -114.59878 34962 ft 448 kts 47°
2026-05-07 05:53 34.71639 -114.54238 34963 ft 448 kts 47°
2026-05-07 05:54 34.75767 -114.48565 34973 ft 448 kts 46°
2026-05-07 05:54 34.80292 -114.43379 34963 ft 447 kts 40°
2026-05-07 05:55 34.85001 -114.38431 34948 ft 447 kts 40°
2026-05-07 05:55 34.89699 -114.33449 34917 ft 448 kts 41°
2026-05-07 05:56 34.94390 -114.28435 34919 ft 449 kts 41°
2026-05-07 05:56 34.99087 -114.23406 34932 ft 450 kts 41°
2026-05-07 05:57 35.03653 -114.18159 34970 ft 452 kts 47°
2026-05-07 05:57 35.07563 -114.12143 35023 ft 453 kts 52°
2026-05-07 05:58 35.11382 -114.05992 35063 ft 455 kts 52°
2026-05-07 05:58 35.15219 -113.99831 35094 ft 456 kts 52°
2026-05-07 05:59 35.19044 -113.93710 35114 ft 456 kts 52°
2026-05-07 05:59 35.22900 -113.87542 35110 ft 456 kts 52°
2026-05-07 06:00 35.26748 -113.81377 35096 ft 456 kts 52°
2026-05-07 06:00 35.30595 -113.75202 35077 ft 455 kts 52°
2026-05-07 06:01 35.34432 -113.69030 35048 ft 456 kts 52°
2026-05-07 06:01 35.38268 -113.62850 35004 ft 455 kts 52°
2026-05-07 06:02 35.42097 -113.56670 34998 ft 455 kts 52°
2026-05-07 06:02 35.45923 -113.50484 34993 ft 455 kts 52°
2026-05-07 06:03 35.49747 -113.44289 35004 ft 455 kts 52°
2026-05-07 06:03 35.53546 -113.38125 35003 ft 456 kts 52°
2026-05-07 06:04 35.57405 -113.31853 35009 ft 457 kts 52°
2026-05-07 06:04 35.61235 -113.25617 35022 ft 458 kts 52°
2026-05-07 06:05 35.65070 -113.19360 35029 ft 459 kts 52°
2026-05-07 06:05 35.68907 -113.13089 35037 ft 459 kts 52°
2026-05-07 06:06 35.72750 -113.06796 35023 ft 460 kts 52°
2026-05-07 06:06 35.76570 -113.00530 35039 ft 461 kts 52°
2026-05-07 06:07 35.80443 -112.94166 35053 ft 461 kts 52°
2026-05-07 06:07 35.84265 -112.87874 35057 ft 461 kts 52°
2026-05-07 06:08 35.88110 -112.81532 35047 ft 462 kts 52°
2026-05-07 06:08 35.91948 -112.75191 35052 ft 462 kts 52°
2026-05-07 06:09 35.95788 -112.68834 35063 ft 461 kts 52°
2026-05-07 06:09 35.99621 -112.62478 35062 ft 462 kts 52°
2026-05-07 06:10 36.03451 -112.56113 35081 ft 462 kts 52°
2026-05-07 06:10 36.07285 -112.49731 35106 ft 462 kts 52°
2026-05-07 06:11 36.11106 -112.43358 35132 ft 463 kts 52°
2026-05-07 06:11 36.14946 -112.36943 35146 ft 463 kts 52°
2026-05-07 06:12 36.18777 -112.30531 35145 ft 464 kts 52°
2026-05-07 06:12 36.22586 -112.24143 35145 ft 464 kts 52°
2026-05-07 06:13 36.26419 -112.17703 35125 ft 464 kts 52°
2026-05-07 06:13 36.30251 -112.11251 35108 ft 464 kts 52°
2026-05-07 06:14 36.34079 -112.04795 35107 ft 465 kts 52°
2026-05-07 06:14 36.37906 -111.98328 35103 ft 465 kts 52°
2026-05-07 06:15 36.41737 -111.91843 35094 ft 465 kts 52°
2026-05-07 06:15 36.45557 -111.85362 35088 ft 465 kts 52°
2026-05-07 06:16 36.49379 -111.78869 35083 ft 465 kts 52°
2026-05-07 06:16 36.53194 -111.72373 35078 ft 465 kts 52°
2026-05-07 06:17 36.57005 -111.65871 35070 ft 465 kts 52°
2026-05-07 06:17 36.60788 -111.59406 35071 ft 465 kts 52°
2026-05-07 06:18 36.64597 -111.52884 35087 ft 465 kts 52°
2026-05-07 06:18 36.68399 -111.46360 35102 ft 466 kts 52°
2026-05-07 06:19 36.72200 -111.39827 35117 ft 466 kts 52°
2026-05-07 06:19 36.76004 -111.33274 35117 ft 466 kts 52°
2026-05-07 06:20 36.79801 -111.26723 35123 ft 466 kts 52°
2026-05-07 06:20 36.83604 -111.20148 35112 ft 467 kts 52°
2026-05-07 06:21 36.87404 -111.13564 35091 ft 467 kts 52°
2026-05-07 06:21 36.91177 -111.07014 35076 ft 468 kts 52°
2026-05-07 06:22 36.94980 -111.00400 35061 ft 469 kts 52°
2026-05-07 06:22 36.95626 -110.99275 35061 ft 469 kts 52°